• In Österreich
  • Länderverzeichnis
  • Für 7 Tage
  • Wassertemperatur
  • Satellitenkarten
  • Wetterkarte
  • News
  • Widgets
  • user-avatar
    Anmelden

    Stündliche Wetter Algier

    Heute, 18 Juli, Mittwoch

    Zeit Temperatur Niederschläge Wind Luftdruck Luftfeuchtigkeit
    00:00 +30°C° 0 mm 5 m/S 747 mmHg 41%
    01:00 +32°C° 0 mm 5 m/S 747 mmHg 40%
    02:00 +32°C° 0 mm 5 m/S 746 mmHg 39%
    03:00 +32°C° 0 mm 5 m/S 746 mmHg 38%
    04:00 +32°C° 0 mm 5 m/S 746 mmHg 37%
    05:00 +33°C° 0 mm 6 m/S 746 mmHg 37%
    06:00 +33°C° 0 mm 6 m/S 746 mmHg 36%
    07:00 +35°C° 0 mm 6 m/S 746 mmHg 32%
    08:00 +38°C° 0 mm 6 m/S 746 mmHg 29%
    09:00 +40°C° 0 mm 6 m/S 746 mmHg 25%
    10:00 +42°C° 0 mm 6 m/S 746 mmHg 23%
    11:00 +44°C° 0 mm 6 m/S 746 mmHg 22%
    12:00 +45°C° 0 mm 6 m/S 746 mmHg 20%
    13:00 +43°C° 0 mm 5 m/S 746 mmHg 23%
    14:00 +43°C° 0 mm 4 m/S 746 mmHg 26%
    15:00 +42°C° 0 mm 4 m/S 746 mmHg 29%
    16:00 +39°C° 0 mm 3 m/S 746 mmHg 34%
    17:00 +37°C° 0 mm 3 m/S 746 mmHg 40%
    18:00 +36°C° 0 mm 2 m/S 747 mmHg 46%
    19:00 +34°C° 0 mm 2 m/S 747 mmHg 51%
    20:00 +32°C° 0 mm 2 m/S 747 mmHg 55%
    21:00 +31°C° 0 mm 1 m/S 748 mmHg 60%
    22:00 +31°C° 0 mm 2 m/S 748 mmHg 59%
    23:00 +31°C° 0 mm 2 m/S 748 mmHg 57%

    Morgen, 19 Juli, Donnerstag

    Zeit Temperatur Niederschläge Wind Luftdruck Luftfeuchtigkeit
    00:00 +31°C° 0 mm 2 m/S 748 mmHg 56%
    01:00 +30°C° 0 mm 2 m/S 748 mmHg 56%
    02:00 +30°C° 0 mm 2 m/S 748 mmHg 56%
    03:00 +29°C° 0 mm 2 m/S 748 mmHg 56%
    04:00 +29°C° 0 mm 2 m/S 748 mmHg 58%
    05:00 +29°C° 0 mm 2 m/S 748 mmHg 60%
    06:00 +29°C° 0 mm 2 m/S 748 mmHg 61%
    07:00 +32°C° 0 mm 2 m/S 748 mmHg 52%
    08:00 +35°C° 0 mm 2 m/S 748 mmHg 44%
    09:00 +37°C° 0 mm 2 m/S 749 mmHg 35%
    10:00 +38°C° 0 mm 2 m/S 749 mmHg 35%
    11:00 +38°C° 0 mm 2 m/S 748 mmHg 35%
    12:00 +39°C° 0 mm 2 m/S 748 mmHg 35%
    13:00 +39°C° 0 mm 3 m/S 748 mmHg 33%
    14:00 +40°C° 0 mm 3 m/S 748 mmHg 31%
    15:00 +42°C° 0 mm 3 m/S 747 mmHg 29%
    16:00 +39°C° 0 mm 3 m/S 747 mmHg 32%
    17:00 +38°C° 0 mm 3 m/S 747 mmHg 34%
    18:00 +37°C° 0 mm 3 m/S 747 mmHg 37%
    19:00 +36°C° 0 mm 2 m/S 747 mmHg 39%
    20:00 +34°C° 0 mm 1 m/S 748 mmHg 40%
    21:00 +33°C° 0 mm 1 m/S 748 mmHg 42%
    22:00 +34°C° 0 mm 1 m/S 748 mmHg 39%
    23:00 +35°C° 0 mm 2 m/S 748 mmHg 36%

    übermorgen, 20 Juli, Freitag

    Zeit Temperatur Niederschläge Wind Luftdruck Luftfeuchtigkeit
    00:00 +36°C° 0 mm 2 m/S 747 mmHg 33%
    01:00 +35°C° 0 mm 2 m/S 747 mmHg 35%
    02:00 +34°C° 0 mm 3 m/S 747 mmHg 37%
    03:00 +33°C° 0 mm 3 m/S 747 mmHg 39%
    04:00 +32°C° 0 mm 2 m/S 747 mmHg 39%
    05:00 +34°C° 0 mm 2 m/S 747 mmHg 39%
    06:00 +34°C° 0 mm 2 m/S 747 mmHg 40%
    07:00 +35°C° 0 mm 2 m/S 747 mmHg 36%
    08:00 +37°C° 0 mm 2 m/S 747 mmHg 33%
    09:00 +39°C° 0 mm 2 m/S 748 mmHg 29%
    10:00 +39°C° 0 mm 2 m/S 747 mmHg 29%
    11:00 +40°C° 0 mm 2 m/S 747 mmHg 28%
    12:00 +41°C° 0 mm 2 m/S 747 mmHg 27%
    13:00 +41°C° 0 mm 2 m/S 747 mmHg 28%
    14:00 +40°C° 0 mm 3 m/S 747 mmHg 28%
    15:00 +40°C° 0 mm 3 m/S 746 mmHg 29%
    16:00 +39°C° 0 mm 3 m/S 746 mmHg 32%
    17:00 +37°C° 0 mm 2 m/S 746 mmHg 35%
    18:00 +36°C° 0 mm 2 m/S 746 mmHg 38%
    19:00 +35°C° 0 mm 2 m/S 746 mmHg 40%
    20:00 +34°C° 0 mm 2 m/S 746 mmHg 43%
    21:00 +33°C° 0 mm 1 m/S 747 mmHg 45%
    22:00 +33°C° 0 mm 1 m/S 746 mmHg 44%
    23:00 +33°C° 0 mm 1 m/S 746 mmHg 43%

    21 Juli, Samstag

    Zeit Temperatur Niederschläge Wind Luftdruck Luftfeuchtigkeit
    00:00 +33°C° 0 mm 1 m/S 746 mmHg 42%
    01:00 +32°C° 0 mm 1 m/S 746 mmHg 43%
    02:00 +32°C° 0 mm 2 m/S 745 mmHg 44%
    03:00 +31°C° 0 mm 3 m/S 745 mmHg 44%
    04:00 +31°C° 0 mm 2 m/S 746 mmHg 48%
    05:00 +30°C° 0 mm 1 m/S 746 mmHg 51%
    06:00 +29°C° 0 mm 1 m/S 746 mmHg 54%
    07:00 +31°C° 0 mm 1 m/S 747 mmHg 48%
    08:00 +33°C° 0 mm 1 m/S 747 mmHg 42%
    09:00 +34°C° 0 mm 1 m/S 747 mmHg 36%
    10:00 +37°C° 0 mm 2 m/S 747 mmHg 32%
    11:00 +38°C° 0 mm 2 m/S 747 mmHg 29%
    12:00 +39°C° 0 mm 3 m/S 747 mmHg 25%
    13:00 +39°C° 0 mm 3 m/S 746 mmHg 26%
    14:00 +40°C° 0 mm 4 m/S 746 mmHg 27%
    15:00 +38°C° 0 mm 4 m/S 746 mmHg 28%
    16:00 +37°C° 0 mm 3 m/S 746 mmHg 32%
    17:00 +35°C° 0 mm 3 m/S 746 mmHg 36%
    18:00 +34°C° 0 mm 2 m/S 746 mmHg 40%
    19:00 +32°C° 0 mm 2 m/S 747 mmHg 44%
    20:00 +30°C° 0 mm 2 m/S 747 mmHg 48%
    21:00 +29°C° 0 mm 1 m/S 748 mmHg 52%
    22:00 +29°C° 0 mm 2 m/S 748 mmHg 52%
    23:00 +29°C° 0 mm 2 m/S 748 mmHg 53%

    22 Juli, Sonntag

    Zeit Temperatur Niederschläge Wind Luftdruck Luftfeuchtigkeit
    00:00 +28°C° 0 mm 3 m/S 747 mmHg 54%
    01:00 +28°C° 0 mm 3 m/S 747 mmHg 53%
    02:00 +28°C° 0 mm 3 m/S 747 mmHg 52%
    03:00 +28°C° 0 mm 3 m/S 747 mmHg 51%
    04:00 +28°C° 0 mm 3 m/S 747 mmHg 54%
    05:00 +28°C° 0 mm 3 m/S 747 mmHg 58%
    06:00 +28°C° 0 mm 4 m/S 747 mmHg 61%
    07:00 +29°C° 0 mm 4 m/S 747 mmHg 55%
    08:00 +32°C° 0 mm 4 m/S 748 mmHg 49%
    09:00 +33°C° 0 mm 4 m/S 748 mmHg 42%
    10:00 +34°C° 0 mm 5 m/S 748 mmHg 39%
    11:00 +35°C° 0 mm 5 m/S 748 mmHg 37%
    12:00 +38°C° 0 mm 6 m/S 748 mmHg 34%
    13:00 +38°C° 0 mm 6 m/S 747 mmHg 34%
    14:00 +38°C° 0 mm 6 m/S 747 mmHg 35%
    15:00 +38°C° 0 mm 6 m/S 747 mmHg 35%
    16:00 +36°C° 0 mm 6 m/S 747 mmHg 38%
    17:00 +35°C° 0 mm 6 m/S 747 mmHg 41%
    18:00 +34°C° 0 mm 6 m/S 747 mmHg 44%
    19:00 +32°C° 0 mm 5 m/S 747 mmHg 49%
    20:00 +30°C° 0 mm 4 m/S 748 mmHg 54%
    21:00 +29°C° 0 mm 4 m/S 748 mmHg 60%
    22:00 +29°C° 0 mm 4 m/S 748 mmHg 59%
    23:00 +28°C° 0 mm 3 m/S 747 mmHg 58%

    23 Juli, Montag

    Zeit Temperatur Niederschläge Wind Luftdruck Luftfeuchtigkeit
    00:00 +28°C° 0 mm 3 m/S 747 mmHg 58%
    01:00 +28°C° 0 mm 3 m/S 747 mmHg 56%
    02:00 +27°C° 0 mm 3 m/S 747 mmHg 54%
    03:00 +27°C° 0 mm 3 m/S 746 mmHg 52%
    04:00 +28°C° 0 mm 3 m/S 747 mmHg 50%
    05:00 +28°C° 0 mm 3 m/S 747 mmHg 48%
    06:00 +29°C° 0 mm 3 m/S 747 mmHg 47%
    07:00 +31°C° 0 mm 3 m/S 747 mmHg 41%
    08:00 +34°C° 0 mm 3 m/S 747 mmHg 35%
    09:00 +36°C° 0 mm 3 m/S 747 mmHg 29%
    10:00 +37°C° 0 mm 4 m/S 747 mmHg 27%
    11:00 +39°C° 0 mm 5 m/S 746 mmHg 26%
    12:00 +40°C° 0 mm 5 m/S 746 mmHg 25%
    13:00 +40°C° 0 mm 6 m/S 746 mmHg 25%
    14:00 +40°C° 0 mm 6 m/S 746 mmHg 26%
    15:00 +40°C° 0 mm 6 m/S 745 mmHg 26%
    16:00 +39°C° 0 mm 6 m/S 745 mmHg 28%
    17:00 +37°C° 0 mm 5 m/S 745 mmHg 30%
    18:00 +36°C° 0 mm 5 m/S 745 mmHg 32%
    19:00 +35°C° 0 mm 5 m/S 745 mmHg 35%
    20:00 +34°C° 0 mm 4 m/S 746 mmHg 39%
    21:00 +31°C° 0 mm 3 m/S 746 mmHg 42%
    22:00 +31°C° 0 mm 3 m/S 746 mmHg 41%
    23:00 +31°C° 0 mm 3 m/S 745 mmHg 41%
    Mehr zeigen